K2MIT Weather Reports


Display with metric or nautical units.
time (UTC)temp
F
wind
direction
speed
MPH
gust
MPH
rain 1hr
in
rain 24hr
in
rain mn
in
humidity
%
barometer
mb
20260509103036 50 14 1.0 4.0 0.00 0.00 0.00 86 1012.7
20260509101544 50 70 0.0 3.0 0.00 0.00 0.00 85 1012.5
20260509100039 50 72 0.0 4.0 0.00 0.00 0.00 85 1012.1
20260509094532 50 76 0.0 3.0 0.00 0.00 0.00 85 1012.1
20260509093031 50 78 1.0 4.0 0.00 0.00 0.00 84 1012.2
20260509091533 50 78 0.0 2.0 0.00 0.00 0.00 84 1012.1
20260509090030 50 61 1.0 2.0 0.00 0.00 0.00 83 1012.3
20260509084542 50 88 1.0 3.0 0.00 0.00 0.00 83 1012.5
20260509083032 50 59 0.0 2.0 0.00 0.00 0.00 82 1012.6
20260509081534 50 90 0.0 2.0 0.00 0.00 0.00 82 1013.4
20260509080036 51 0 0.0 3.0 0.00 0.00 0.00 81 1012.6
20260509074532 51 60 0.0 2.0 0.00 0.00 0.00 80 1012.4
20260509073054 51 62 1.0 2.0 0.00 0.00 0.00 79 1012.3
20260509071535 51 80 0.0 2.0 0.00 0.00 0.00 80 1012.4
20260509070032 51 0 0.0 0.0 0.00 0.00 0.00 80 1012.3
20260509064530 51 0 0.0 0.0 0.00 0.02 0.00 80 1012.4
20260509063032 51 0 0.0 0.0 0.00 0.02 0.00 80 1012.7
20260509061531 51 0 0.0 0.0 0.00 0.02 0.00 79 1012.8
20260509060044 51 0 0.0 0.0 0.00 0.02 0.00 78 1013.6
20260509054529 50 0 0.0 0.0 0.00 0.02 0.00 76 1012.8
20260509053034 50 0 0.0 0.0 0.00 0.02 0.00 74 1013.0
20260509051533 50 0 0.0 0.0 0.00 0.02 0.00 73 1013.0
20260509050034 51 0 0.0 0.0 0.00 0.02 0.00 71 1013.0
20260509044536 51 0 0.0 0.0 0.00 0.02 0.00 69 1013.0
20260509043036 52 0 0.0 0.0 0.00 0.02 0.00 68 1012.9
20260509041531 53 0 0.0 0.0 0.00 0.02 0.00 68 1012.9
20260509040040 53 0 0.0 0.0 0.00 0.02 0.00 67 1012.8
20260509034542 54 0 0.0 2.0 0.00 0.02 0.02 67 1013.2
20260509033034 54 203 0.0 3.0 0.00 0.02 0.02 67 1013.2
20260509031536 53 206 1.0 3.0 0.00 0.02 0.02 68 1013.3
20260509030035 53 0 0.0 3.0 0.00 0.02 0.02 68 1013.4
20260509024530 53 0 0.0 3.0 0.00 0.02 0.02 68 1013.3
20260509023035 53 0 0.0 2.0 0.00 0.02 0.02 67 1013.1
20260509021538 53 167 0.0 3.0 0.00 0.02 0.02 66 1013.1
20260509020039 53 0 0.0 0.0 0.00 0.02 0.02 67 1012.9
20260509014535 53 0 0.0 0.0 0.00 0.02 0.02 67 1012.8
20260509013035 53 0 0.0 0.0 0.00 0.02 0.02 66 1012.5
20260509011544 54 0 0.0 0.0 0.00 0.02 0.02 65 1012.4
20260509010037 54 0 0.0 0.0 0.00 0.02 0.02 63 1012.1
20260509004542 53 0 0.0 0.0 0.00 0.02 0.02 64 1012.0
20260509003035 54 0 0.0 0.0 0.00 0.02 0.02 60 1011.7
20260509001534 55 0 0.0 0.0 0.00 0.02 0.02 57 1011.6
20260509000035 55 0 0.0 2.0 0.00 0.02 0.02 56 1011.9
20260508234532 56 0 0.0 4.0 0.00 0.02 0.02 54 1011.7
20260508233036 57 295 1.0 4.0 0.00 0.02 0.02 52 1011.5
20260508231536 57 275 2.0 6.0 0.00 0.02 0.02 52 1011.5
20260508230033 57 284 1.0 5.0 0.00 0.02 0.02 53 1011.3
20260508224533 57 246 2.0 6.0 0.00 0.02 0.02 52 1011.2
20260508223041 57 0 1.0 6.0 0.00 0.02 0.02 52 1011.2
20260508221535 58 329 5.0 12.0 0.00 0.02 0.02 49 1011.0
20260508220035 58 306 6.0 13.0 0.00 0.02 0.02 49 1011.2
20260508214538 59 309 6.0 12.0 0.00 0.02 0.02 48 1011.4
20260508213036 58 296 4.0 13.0 0.00 0.02 0.02 51 1011.4
20260508211534 58 290 3.0 13.0 0.00 0.02 0.02 50 1011.7
20260508210030 58 342 3.0 11.0 0.00 0.02 0.02 51 1011.5
20260508204536 58 310 5.0 10.0 0.00 0.02 0.02 52 1011.4
20260508203032 57 250 5.0 11.0 0.00 0.02 0.02 53 1011.2
20260508201532 57 313 3.0 14.0 0.00 0.02 0.02 54 1011.3
20260508200032 58 360 6.0 14.0 0.00 0.02 0.02 49 1011.2
20260508194532 58 352 6.0 16.0 0.00 0.02 0.02 50 1011.4
20260508193036 59 54 8.0 16.0 0.00 0.02 0.02 48 1011.4
20260508191532 57 350 5.0 17.0 0.00 0.02 0.02 50 1011.5
20260508190030 56 323 7.0 19.0 0.00 0.02 0.02 49 1011.7
20260508184535 58 281 2.0 10.0 0.00 0.02 0.02 44 1011.4
20260508183035 59 217 4.0 13.0 0.00 0.02 0.02 41 1011.2
20260508181539 60 296 4.0 14.0 0.00 0.02 0.02 41 1010.9
20260508180039 58 275 4.0 18.0 0.00 0.02 0.02 42 1011.2
20260508174537 58 317 7.0 13.0 0.00 0.02 0.02 42 1011.1
20260508173034 59 225 7.0 17.0 0.00 0.02 0.02 41 1011.1
20260508171541 59 304 6.0 13.0 0.00 0.02 0.02 40 1011.2
20260508170034 58 216 5.0 19.0 0.00 0.02 0.02 41 1011.3
20260508164534 59 219 6.0 16.0 0.00 0.02 0.02 39 1011.4
20260508163038 59 256 6.0 16.0 0.00 0.02 0.02 40 1011.6
20260508161536 58 245 4.0 11.0 0.00 0.02 0.02 42 1011.8
20260508160057 57 255 8.0 15.0 0.00 0.02 0.02 40 1011.8
20260508154534 59 229 4.0 12.0 0.00 0.02 0.02 40 1011.9
20260508153046 59 207 2.0 10.0 0.00 0.02 0.02 41 1011.9
20260508151536 58 0 2.0 12.0 0.00 0.02 0.02 41 1011.9
20260508150036 58 206 3.0 11.0 0.00 0.02 0.02 41 1012.0
20260508144534 57 250 3.0 12.0 0.00 0.02 0.02 43 1012.0
20260508143042 57 294 3.0 10.0 0.00 0.02 0.02 47 1012.4
20260508141548 55 22 5.0 12.0 0.00 0.02 0.02 49 1012.3
20260508140033 54 264 3.0 8.0 0.00 0.02 0.02 52 1012.3
20260508134535 53 316 6.0 10.0 0.00 0.02 0.02 54 1012.2
20260508133034 52 300 4.0 9.0 0.00 0.02 0.02 59 1012.2
20260508131532 52 328 3.0 9.0 0.00 0.02 0.02 61 1012.2
20260508130033 51 299 3.0 8.0 0.00 0.02 0.02 65 1012.3
20260508124533 50 309 2.0 8.0 0.00 0.02 0.02 68 1012.5
20260508123035 49 292 5.0 10.0 0.00 0.02 0.02 70 1012.7
20260508121553 49 250 2.0 8.0 0.00 0.02 0.02 72 1012.6
20260508120036 48 321 2.0 10.0 0.00 0.02 0.02 74 1012.7
20260508114531 48 273 4.0 8.0 0.00 0.02 0.02 77 1012.4
20260508113030 47 263 3.0 7.0 0.00 0.02 0.02 80 1012.3
20260508111529 46 267 2.0 5.0 0.00 0.02 0.02 83 1012.1
20260508110036 45 290 1.0 3.0 0.00 0.02 0.02 84 1012.0
20260508104532 45 0 0.0 2.0 0.00 0.02 0.02 85 1011.9